Location: Stockholm
(59.3293°N, 18.0686°E)
Time: 22:47:08
(UTC+02:00)

Amateur Radio Satellites - All Passes

Search period start: 22 August 2017 22:17
Search period end: 23 August 2017 22:17
Location: Stockholm, 59.3293°N, 18.0686°E

Satellite Date Start Highest point End Downlink Frequencies (MHz)
Time Altitude Azimuth
SO-50 22 Aug 22:22:01 22:23:43 12° 112° (ESE) 22:25:25 436.795
DELFI C3 22 Aug 22:30:22 22:33:33 22° 270° (W) 22:36:45 145.870
LO-87 22 Aug 22:34:12 22:37:46 71° 71° (ENE) 22:41:20 145.935 - 145.965
TIGRISAT 22 Aug 22:35:21 22:39:25 40° 98° (E) 22:43:31 435.000
YUBILEINY 22 Aug 22:41:43 22:46:57 17° 14° (NNE) 22:52:11 435.215
EO-88 22 Aug 22:44:51 22:47:41 21° 269° (W) 22:50:34 145.990 - 145.960
UKube-1 22 Aug 23:00:51 23:02:53 13° 42° (NE) 23:04:56 .
50 SAT 22 Aug 23:06:10 23:08:00 14° 52° (NE) 23:09:51 437.505
PRISM 22 Aug 23:08:56 23:13:03 57° 103° (ESE) 23:17:05 437.425
FO-29 22 Aug 23:11:57 23:17:51 71° 294° (WNW) 23:23:10 435.910
PCSat 22 Aug 23:19:08 23:24:22 51° 126° (SE) 23:29:38 145.827
SPROUT 22 Aug 23:21:34 23:25:39 47° 64° (ENE) 23:29:45 437.525
DX 1 22 Aug 23:24:29 23:27:53 22° 52° (NE) 23:31:18 434.975-435.025
VELOX 1 22 Aug 23:27:37 23:31:55 48° 64° (ENE) 23:36:13 145.980
ESTCUBE 1 22 Aug 23:28:58 23:33:26 59° 257° (WSW) 23:37:58 437.505/2401.250
UNISAT 6 22 Aug 23:37:24 23:41:40 64° 291° (WNW) 23:45:58 437.425
NANOSAT C BR1 22 Aug 23:45:03 23:47:50 17° 87° (E) 23:50:35 145.865
STRAND 1 22 Aug 23:50:48 23:52:34 12° 328° (NNW) 23:54:21 437.568
POLYITAN 1 22 Aug 23:51:17 23:54:27 20° 89° (E) 23:57:37 437.675
M-CUBED/EXP-1 PRIME 22 Aug 23:53:14 23:56:39 21° 95° (E) 23:59:54 437.505
SO-50 22 Aug 23:58:52 00:03:12 47° 133° (SE) 00:07:33 436.795
QB50P2 23 Aug 00:06:17 00:09:57 28° 94° (E) 00:13:36 145.880/145.840
EO-79 23 Aug 00:06:20 00:09:55 26° 93° (E) 00:13:28 145.935-145.965
LO-87 23 Aug 00:09:13 00:11:38 17° 271° (W) 00:14:02 145.935 - 145.965
TIGRISAT 23 Aug 00:12:10 00:16:09 38° 298° (WNW) 00:20:10 435.000
BEESAT 23 Aug 00:12:31 00:14:31 13° 37° (NE) 00:16:30 436.000
AIST 2D 23 Aug 00:16:05 00:19:38 62° 102° (ESE) 00:23:10 435.315
BUGSAT 1 23 Aug 00:27:48 00:29:35 12° 84° (E) 00:31:20 437.445
UKube-1 23 Aug 00:33:51 00:38:01 47° 63° (ENE) 00:42:13 .
DUCHIFAT 1 23 Aug 00:33:55 00:37:47 36° 96° (E) 00:41:40 145.980
50 SAT 23 Aug 00:36:44 00:40:09 78° 71° (ENE) 00:43:35 437.505
YUBILEINY 23 Aug 00:39:53 00:47:27 31° 46° (NE) 00:54:59 435.215
PRISM 23 Aug 00:44:33 00:48:07 28° 303° (WNW) 00:51:38 437.425
ITUPSAT 1 23 Aug 00:46:31 00:49:43 18° 45° (NE) 00:52:55 437.325
FO-29 23 Aug 00:57:35 01:02:03 22° 319° (NW) 01:06:13 435.910
SPROUT 23 Aug 00:57:55 01:01:44 32° 265° (W) 01:05:35 437.525
DX 1 23 Aug 00:59:14 01:03:38 85° 251° (WSW) 01:08:03 434.975-435.025
PCSat 23 Aug 01:02:24 01:07:48 60° 329° (NNW) 01:13:13 145.827
VELOX 1 23 Aug 01:04:27 01:08:32 34° 264° (W) 01:12:38 145.980
ESTCUBE 1 23 Aug 01:09:26 01:11:14 12° 279° (W) 01:13:03 437.505/2401.250
MOZHAYETS 4 23 Aug 01:14:44 01:18:08 21° 50° (NE) 01:21:35
UNISAT 6 23 Aug 01:15:06 01:17:42 16° 313° (NW) 01:20:19 437.425
NANOSAT C BR1 23 Aug 01:19:56 01:24:10 90° 285° (WNW) 01:28:22 145.865
POLYITAN 1 23 Aug 01:26:31 01:30:44 75° 290° (WNW) 01:34:56 437.675
M-CUBED/EXP-1 PRIME 23 Aug 01:27:05 01:31:38 81° 299° (WNW) 01:35:53 437.505
Gurwin Techsat 1B 23 Aug 01:37:54 01:41:58 22° 87° (E) 01:46:00 435.225
SO-50 23 Aug 01:39:09 01:43:38 62° 336° (NNW) 01:48:09 436.795
CUBESAT XI-V 23 Aug 01:41:19 01:43:36 14° 41° (NE) 01:45:54 437.345
EO-79 23 Aug 01:41:51 01:45:59 57° 293° (WNW) 01:50:07 145.935-145.965
QB50P2 23 Aug 01:41:53 01:46:00 53° 294° (WNW) 01:50:07 145.880/145.840
BEESAT 23 Aug 01:46:47 01:51:11 39° 59° (ENE) 01:55:36 436.000
Oscar 19 23 Aug 01:48:19 01:53:02 33° 94° (E) 01:57:42 437.125/150
AIST 2D 23 Aug 01:49:49 01:52:32 21° 303° (WNW) 01:55:16 435.315
TIGRISAT 23 Aug 01:50:48 01:51:50 11° 320° (NW) 01:52:53 435.000
BUGSAT 1 23 Aug 02:01:41 02:05:43 71° 105° (ESE) 02:09:44 437.445
DUCHIFAT 1 23 Aug 02:09:37 02:13:33 41° 297° (WNW) 02:17:30 145.980
UKube-1 23 Aug 02:10:17 02:14:13 33° 264° (W) 02:18:11 .
50 SAT 23 Aug 02:11:18 02:13:17 15° 272° (W) 02:15:16 437.505
ITUPSAT 1 23 Aug 02:22:05 02:26:48 65° 66° (ENE) 02:31:33 437.325
YUBILEINY 23 Aug 02:37:02 02:45:49 79° 74° (ENE) 02:54:33 435.215
DX 1 23 Aug 02:37:39 02:40:30 17° 273° (W) 02:43:22 434.975-435.025
FO-29 23 Aug 02:43:49 02:45:06 11° 344° (NNW) 02:46:21 435.910
PCSat 23 Aug 02:47:00 02:52:04 38° 354° (N) 02:57:09 145.827
KKS-1 23 Aug 02:48:22 02:51:36 20° 49° (NE) 02:54:50 437.445
MOZHAYETS 4 23 Aug 02:50:11 02:54:46 86° 69° (ENE) 02:59:23
NANOSAT C BR1 23 Aug 02:56:20 02:59:23 20° 308° (NW) 03:02:27 145.865
AO-7 23 Aug 02:59:02 03:05:23 23° 84° (E) 03:11:41 .
M-CUBED/EXP-1 PRIME 23 Aug 03:01:57 03:05:28 22° 318° (NW) 03:08:51 437.505
POLYITAN 1 23 Aug 03:03:09 03:05:55 17° 311° (NW) 03:08:41 437.675
NO-84 23 Aug 03:10:38 03:13:05 26° 163° (SSE) 03:15:32 435.350 FM
ITAMSAT 1 23 Aug 03:12:45 03:16:18 18° 85° (E) 03:19:50 435.822/435.867
CUBESAT XI-V 23 Aug 03:15:31 03:19:58 45° 63° (ENE) 03:24:29 437.345
Gurwin Techsat 1B 23 Aug 03:17:19 03:22:41 88° 109° (ESE) 03:28:02 435.225
EO-79 23 Aug 03:18:44 03:20:59 14° 314° (NW) 03:23:14 145.935-145.965
QB50P2 23 Aug 03:18:53 03:20:59 14° 315° (NW) 03:23:06 145.880/145.840
SO-50 23 Aug 03:20:22 03:24:42 43° 360° (N) 03:29:04 436.795
STARS 23 Aug 03:21:18 03:24:22 19° 49° (NE) 03:27:26 437.465
BEESAT 23 Aug 03:24:20 03:28:56 47° 260° (W) 03:33:34 436.000
Oscar 19 23 Aug 03:27:33 03:32:42 61° 295° (WNW) 03:37:50 437.125/150
BUGSAT 1 23 Aug 03:37:35 03:40:45 23° 305° (NW) 03:43:55 437.445
DUCHIFAT 1 23 Aug 03:47:00 03:48:17 11° 318° (NW) 03:49:33 145.980
ITUPSAT 1 23 Aug 04:00:59 04:05:02 27° 268° (W) 04:09:07 437.325
KKS-1 23 Aug 04:23:07 04:27:36 81° 69° (ENE) 04:32:06 437.445
BEESAT 3 23 Aug 04:25:37 04:27:13 12° 114° (ESE) 04:28:49 437.485
MOZHAYETS 4 23 Aug 04:29:14 04:32:33 20° 273° (W) 04:35:54
PCSat 23 Aug 04:31:18 04:36:32 45° 19° (NNE) 04:41:46 145.827
YUBILEINY 23 Aug 04:34:19 04:42:00 37° 279° (W) 04:49:41 435.215
STRAND 1 23 Aug 04:40:40 04:43:47 17° 40° (NE) 04:46:53 437.568
NO-84 23 Aug 04:47:23 04:50:01 34° 183° (S) 04:52:43 435.350 FM
AO-7 23 Aug 04:51:25 04:59:48 70° 109° (ESE) 05:08:05 .
ITAMSAT 1 23 Aug 04:51:26 04:56:39 77° 106° (ESE) 05:01:51 435.822/435.867
CUBESAT XI-V 23 Aug 04:53:04 04:57:27 39° 264° (W) 05:01:54 437.345
STARS 23 Aug 04:55:43 05:00:07 77° 71° (ENE) 05:04:32 437.465
Gurwin Techsat 1B 23 Aug 04:57:46 05:02:09 27° 310° (NW) 05:06:32 435.225
SO-50 23 Aug 05:01:15 05:05:46 61° 23° (NNE) 05:10:18 436.795
Oscar 19 23 Aug 05:07:36 05:11:11 19° 317° (NW) 05:14:46 437.125/150
DOVE 4 23 Aug 05:12:28 05:15:52 20° 85° (E) 05:19:07 437.250
AO-85 23 Aug 05:29:27 05:32:33 23° 123° (ESE) 05:35:41 145.980
CUTE-I 23 Aug 05:37:16 05:39:58 14° 80° (E) 05:42:37 437.470
NUDT-PHONESAT 23 Aug 05:56:53 05:58:38 13° 85° (E) 06:00:22 437.300
LilacSat-2 23 Aug 05:57:12 05:59:52 17° 88° (E) 06:02:31 437.200
XW-2D 23 Aug 05:58:40 06:01:17 17° 88° (E) 06:03:54 145.860 - 145.880
BEESAT 3 23 Aug 06:00:02 06:03:57 50° 135° (SE) 06:07:54 437.485
KKS-1 23 Aug 06:01:23 06:04:43 20° 271° (W) 06:08:05 437.445
FO-29 23 Aug 06:06:10 06:10:30 18° 36° (NE) 06:14:33 435.910
HO-68 23 Aug 06:07:26 06:10:37 13° 74° (ENE) 06:13:47 435.675
XW-2B 23 Aug 06:09:35 06:12:32 20° 90° (E) 06:15:27 145.730 - 145.750
PCSat 23 Aug 06:14:56 06:20:25 85° 224° (SW) 06:25:52 145.827
STRAND 1 23 Aug 06:17:04 06:22:00 51° 62° (ENE) 06:26:58 437.568
BEESAT 2 23 Aug 06:19:07 06:22:48 34° 129° (SE) 06:26:31 435.950
NO-84 23 Aug 06:24:41 06:26:54 20° 204° (SSW) 06:29:11 435.350 FM
XW-2C 23 Aug 06:28:32 06:31:56 29° 94° (E) 06:35:21 145.795 - 145.815
ITAMSAT 1 23 Aug 06:31:20 06:35:45 29° 308° (NW) 06:40:10 435.822/435.867
STARS 23 Aug 06:33:38 06:36:58 21° 270° (W) 06:40:21 437.465
YUBILEINY 23 Aug 06:34:02 06:36:05 11° 305° (NW) 06:38:08 435.215
XW-2F 23 Aug 06:38:46 06:42:18 34° 96° (E) 06:45:50 145.980 - 146.000
Gurwin Techsat 1B 23 Aug 06:39:32 06:40:33 11° 334° (NNW) 06:41:33 435.225
SO-50 23 Aug 06:41:50 06:46:14 50° 226° (SW) 06:50:40 436.795
AO-7 23 Aug 06:44:29 06:52:24 49° 313° (NW) 07:00:15 .
DOVE 4 23 Aug 06:49:32 06:54:16 84° 288° (WNW) 06:58:41 437.250
SEEDS 23 Aug 06:59:48 07:01:42 13° 82° (E) 07:03:36 437.485
KAITUO 1B 23 Aug 07:00:05 07:03:45 43° 99° (E) 07:07:24 145.475/437.950
AO-85 23 Aug 07:08:34 07:12:29 89° 316° (NW) 07:16:32 145.980
CUTE-I 23 Aug 07:15:55 07:21:12 58° 102° (ESE) 07:26:26 437.470
NUDT-PHONESAT 23 Aug 07:29:24 07:33:11 78° 105° (ESE) 07:36:57 437.300
LilacSat-2 23 Aug 07:30:44 07:34:38 78° 288° (WNW) 07:38:32 437.200
XW-2D 23 Aug 07:32:06 07:35:58 78° 290° (WNW) 07:39:49 145.860 - 145.880
UNISAT 6 23 Aug 07:34:16 07:36:45 15° 47° (NE) 07:39:15 437.425
BEESAT 3 23 Aug 07:37:35 07:41:35 54° 337° (NNW) 07:45:35 437.485
AAUSAT CUBESAT 2 23 Aug 07:38:14 07:40:30 14° 84° (E) 07:42:46 437.432
M-CUBED/EXP-1 PRIME 23 Aug 07:42:08 07:43:45 12° 25° (NNE) 07:45:21 437.505
XW-2B 23 Aug 07:43:16 07:47:06 64° 290° (WNW) 07:50:55 145.730 - 145.750
FO-29 23 Aug 07:47:40 07:54:22 46° 58° (ENE) 08:00:21 435.910
CUTE 1.7 + AOD 2 23 Aug 07:50:36 07:54:43 42° 98° (E) 07:58:49 437.475
HO-68 23 Aug 07:53:27 08:00:21 47° 99° (E) 08:07:12 435.675
XW-2A 23 Aug 07:56:09 07:59:01 24° 94° (E) 08:01:51 145.665 - 145.685
BEESAT 2 23 Aug 07:56:20 08:00:23 69° 331° (NNW) 08:04:29 435.950
STRAND 1 23 Aug 07:56:38 08:01:24 38° 264° (W) 08:06:11 437.568
PCSat 23 Aug 07:58:49 08:03:15 26° 246° (WSW) 08:07:38 145.827
XW-2C 23 Aug 08:02:36 08:06:17 44° 294° (WNW) 08:09:57 145.795 - 145.815
TIGRISAT 23 Aug 08:07:34 08:10:54 23° 54° (NE) 08:14:14 435.000
ITAMSAT 1 23 Aug 08:12:23 08:13:47 11° 331° (NNW) 08:15:11 435.822/435.867
XW-2F 23 Aug 08:12:55 08:16:29 38° 296° (WNW) 08:20:04 145.980 - 146.000
UWE-3 23 Aug 08:13:10 08:16:47 27° 93° (E) 08:20:28 435.000/436.395/437.385
Oscar 11 23 Aug 08:14:39 08:17:01 14° 83° (E) 08:19:23 .
SO-50 23 Aug 08:23:44 08:25:47 13° 247° (WSW) 08:27:50 436.795
CUBEBUG 2 23 Aug 08:25:08 08:29:12 48° 100° (E) 08:33:20 437.445
DOVE 4 23 Aug 08:27:52 08:31:21 21° 311° (NW) 08:34:41 437.250
PRISM 23 Aug 08:32:20 08:35:54 28° 57° (ENE) 08:39:28 437.425
SEEDS 23 Aug 08:33:58 08:38:16 66° 104° (ESE) 08:42:29 437.485
KAITUO 1B 23 Aug 08:34:18 08:37:40 30° 299° (WNW) 08:41:01 145.475/437.950
AO-7 23 Aug 08:37:05 08:43:34 26° 339° (NNW) 08:50:01 .
ZACube-1 23 Aug 08:47:35 08:51:27 32° 95° (E) 08:55:22 437.345
O/OREOS (USA 219) 23 Aug 08:49:21 08:52:25 18° 103° (ESE) 08:55:30 437.305
AO-85 23 Aug 08:49:28 08:53:15 41° 349° (N) 08:57:10 145.980
CUTE-I 23 Aug 08:56:15 09:01:07 37° 304° (NW) 09:05:58 437.470
NUDT-PHONESAT 23 Aug 09:03:58 09:06:40 19° 305° (NW) 09:09:22 437.300
LilacSat-2 23 Aug 09:05:55 09:08:22 16° 309° (NW) 09:10:48 437.200
XW-2D 23 Aug 09:07:13 09:09:35 16° 309° (NW) 09:11:58 145.860 - 145.880
AO-73 23 Aug 09:07:17 09:11:21 42° 98° (E) 09:15:29 145.935
UNISAT 6 23 Aug 09:08:32 09:12:46 62° 68° (ENE) 09:17:00 437.425
AAUSAT CUBESAT 2 23 Aug 09:12:30 09:16:43 75° 103° (ESE) 09:20:55 437.432
M-CUBED/EXP-1 PRIME 23 Aug 09:12:59 09:16:56 28° 47° (NE) 09:20:54 437.505
NANOSAT C BR1 23 Aug 09:13:24 09:14:33 11° 41° (NE) 09:15:42 145.865
BEESAT 3 23 Aug 09:15:57 09:19:46 37° 360° (N) 09:23:33 437.485
Max Valier Satellite 23 Aug 09:16:25 09:16:57 10° 83° (E) 09:17:29 145.860
XW-2B 23 Aug 09:18:36 09:20:37 14° 311° (NW) 09:22:39 145.730 - 145.750
POLYITAN 1 23 Aug 09:19:29 09:21:20 13° 43° (NE) 09:23:10 437.675
CUTE 1.7 + AOD 2 23 Aug 09:26:34 09:30:33 37° 298° (WNW) 09:34:31 437.475
AIST 2D 23 Aug 09:27:20 09:29:38 17° 54° (NE) 09:31:58 435.315
XW-2A 23 Aug 09:28:40 09:31:54 42° 294° (WNW) 09:35:09 145.665 - 145.685
FO-29 23 Aug 09:32:13 09:39:23 60° 258° (WSW) 09:45:46 435.910
QB50P2 23 Aug 09:33:49 09:36:25 16° 48° (NE) 09:39:01 145.880/145.840
EO-79 23 Aug 09:33:50 09:36:18 15° 47° (NE) 09:38:45 145.935-145.965
BEESAT 2 23 Aug 09:34:47 09:38:39 38° 354° (N) 09:42:30 435.950
XW-2C 23 Aug 09:38:46 09:39:37 11° 315° (NW) 09:40:26 145.795 - 145.815
HO-68 23 Aug 09:41:20 09:48:22 60° 301° (WNW) 09:55:22 435.675
RS-15 23 Aug 09:41:59 09:50:49 24° 98° (E) 09:59:36 29.354- 29.394
TIGRISAT 23 Aug 09:42:56 09:47:13 78° 253° (WSW) 09:51:31 435.000
UWE-3 23 Aug 09:49:24 09:53:32 56° 293° (WNW) 09:57:45 435.000/436.395/437.385
Oscar 11 23 Aug 09:49:35 09:53:58 72° 105° (ESE) 09:58:20 .
DELFI C3 23 Aug 09:56:52 10:00:24 29° 94° (E) 10:03:53 145.870
DUCHIFAT 1 23 Aug 10:00:18 10:03:16 19° 51° (NE) 10:06:14 145.980
Oscar 19 23 Aug 10:01:23 10:02:50 11° 29° (NNE) 10:04:16 437.125/150
CUBEBUG 2 23 Aug 10:02:01 10:05:45 32° 300° (WNW) 10:09:31 437.445
EO-88 23 Aug 10:03:28 10:06:22 21° 91° (E) 10:09:14 145.990 - 145.960
PRISM 23 Aug 10:06:50 10:10:57 59° 257° (WSW) 10:15:07 437.425
SEEDS 23 Aug 10:10:06 10:13:39 26° 304° (WNW) 10:17:10 437.485
ZACube-1 23 Aug 10:23:49 10:27:54 47° 295° (WNW) 10:32:04 437.345
O/OREOS (USA 219) 23 Aug 10:26:43 10:31:12 84° 127° (SE) 10:35:45 437.305
AO-7 23 Aug 10:28:02 10:33:57 22° 6° (N) 10:39:50 .
AO-85 23 Aug 10:30:26 10:34:18 43° 13° (NNE) 10:38:22 145.980
CUTE-I 23 Aug 10:37:21 10:39:55 14° 327° (NNW) 10:42:28 437.470
Tancredo 1 23 Aug 10:39:55 10:41:45 15° 166° (SSE) 10:43:35 437.200
AO-73 23 Aug 10:43:41 10:47:35 37° 298° (WNW) 10:51:34 145.935
NANOSAT C BR1 23 Aug 10:45:22 10:49:18 40° 62° (ENE) 10:53:13 145.865
M-CUBED/EXP-1 PRIME 23 Aug 10:46:18 10:50:58 80° 247° (WSW) 10:55:40 437.505
UNISAT 6 23 Aug 10:46:20 10:49:52 24° 269° (W) 10:53:24 437.425
Max Valier Satellite 23 Aug 10:47:53 10:51:34 63° 103° (ESE) 10:55:16 145.860
AAUSAT CUBESAT 2 23 Aug 10:48:30 10:51:48 23° 305° (NW) 10:55:06 437.432
POLYITAN 1 23 Aug 10:52:13 10:56:16 48° 65° (ENE) 11:00:19 437.675
BEESAT 3 23 Aug 10:53:56 10:57:56 54° 23° (NNE) 11:01:53 437.485
ISS 23 Aug 10:54:13 10:55:54 13° 156° (SSE) 10:57:35 437.550
AIST 2D 23 Aug 10:58:54 11:02:24 83° 252° (WSW) 11:05:58 435.315
nSIGHT-1 23 Aug 10:59:13 11:01:02 14° 158° (SSE) 11:02:51 .
CUTE 1.7 + AOD 2 23 Aug 11:04:26 11:05:20 11° 320° (NW) 11:06:14 437.475
EO-79 23 Aug 11:07:12 11:11:22 63° 68° (ENE) 11:15:32 145.935-145.965
QB50P2 23 Aug 11:07:22 11:11:32 68° 70° (ENE) 11:15:45 145.880/145.840
ESTCUBE 1 23 Aug 11:12:28 11:15:33 17° 86° (E) 11:18:36 437.505/2401.250
BEESAT 2 23 Aug 11:13:06 11:17:03 45° 17° (NNE) 11:21:00 435.950
FO-29 23 Aug 11:21:11 11:25:41 17° 280° (W) 11:29:55 435.910
TIGRISAT 23 Aug 11:22:16 11:24:41 15° 275° (W) 11:27:05 435.000
BUGSAT 1 23 Aug 11:25:22 11:28:56 31° 59° (ENE) 11:32:30 437.445
LO-87 23 Aug 11:25:29 11:28:27 24° 93° (E) 11:31:23 145.935 - 145.965
Oscar 11 23 Aug 11:26:13 11:29:45 25° 305° (NW) 11:33:17 .
UWE-3 23 Aug 11:27:05 11:29:15 14° 314° (NW) 11:31:27 435.000/436.395/437.385
HO-68 23 Aug 11:29:24 11:34:59 25° 326° (NW) 11:40:33 435.675
Gurwin Techsat 1B 23 Aug 11:30:03 11:34:07 23° 46° (NE) 11:38:12 435.225
DELFI C3 23 Aug 11:31:30 11:35:21 47° 294° (WNW) 11:39:11 145.870
DUCHIFAT 1 23 Aug 11:34:15 11:38:26 86° 69° (ENE) 11:42:38 145.980
Oscar 19 23 Aug 11:36:17 11:40:43 30° 52° (NE) 11:45:11 437.125/150
EO-88 23 Aug 11:36:42 11:40:20 57° 291° (WNW) 11:43:57 145.990 - 145.960
PRISM 23 Aug 11:45:57 11:47:09 11° 278° (W) 11:48:20 437.425
RS-15 23 Aug 11:48:50 12:00:48 61° 125° (SE) 12:12:41 29.354- 29.394
ZACube-1 23 Aug 12:01:34 12:03:20 12° 316° (NW) 12:05:06 437.345
O/OREOS (USA 219) 23 Aug 12:07:11 12:11:08 29° 327° (NNW) 12:15:08 437.305
AO-85 23 Aug 12:10:55 12:15:02 87° 214° (SSW) 12:19:25 145.980
Tancredo 1 23 Aug 12:14:08 12:16:13 18° 186° (S) 12:18:18 437.200
AO-7 23 Aug 12:17:26 12:24:32 32° 32° (NNE) 12:31:37 .
NANOSAT C BR1 23 Aug 12:21:10 12:25:05 37° 263° (W) 12:28:59 145.865
Max Valier Satellite 23 Aug 12:22:14 12:25:07 22° 303° (WNW) 12:28:00 145.860
AO-73 23 Aug 12:22:14 12:22:48 10° 320° (NW) 12:23:23 145.935
M-CUBED/EXP-1 PRIME 23 Aug 12:22:51 12:26:03 18° 267° (W) 12:29:17 437.505
POLYITAN 1 23 Aug 12:28:31 12:32:15 30° 266° (W) 12:36:00 437.675
ISS 23 Aug 12:29:01 12:31:35 21° 176° (S) 12:34:10 437.550
BEESAT 3 23 Aug 12:31:39 12:35:34 50° 225° (SW) 12:39:25 437.485
SPROUT 23 Aug 12:33:38 12:37:11 25° 92° (E) 12:40:43 437.525
nSIGHT-1 23 Aug 12:34:04 12:36:39 21° 177° (S) 12:39:12 .
AIST 2D 23 Aug 12:34:44 12:36:13 12° 275° (W) 12:37:43 435.315
EO-79 23 Aug 12:44:05 12:47:30 24° 269° (W) 12:50:56 145.935-145.965
QB50P2 23 Aug 12:44:27 12:47:46 22° 269° (W) 12:51:06 145.880/145.840
VELOX 1 23 Aug 12:44:35 12:48:19 26° 92° (E) 12:52:02 145.980
ESTCUBE 1 23 Aug 12:48:28 12:53:03 85° 104° (ESE) 12:57:37 437.505/2401.250
BEESAT 2 23 Aug 12:50:59 12:55:04 73° 219° (SW) 12:59:07 435.950
LO-87 23 Aug 12:58:39 13:02:06 46° 293° (WNW) 13:05:29 145.935 - 145.965
BUGSAT 1 23 Aug 13:00:15 13:04:12 48° 260° (W) 13:08:08 437.445
ITAMSAT 1 23 Aug 13:02:16 13:05:59 20° 44° (NE) 13:09:42 435.822/435.867
DELFI C3 23 Aug 13:07:50 13:09:16 12° 315° (NW) 13:10:42 145.870
Gurwin Techsat 1B 23 Aug 13:08:06 13:13:25 76° 68° (ENE) 13:18:46 435.225
EO-88 23 Aug 13:11:47 13:13:18 12° 312° (NW) 13:14:49 145.990 - 145.960
DUCHIFAT 1 23 Aug 13:11:53 13:14:41 17° 273° (W) 13:17:31 145.980
Oscar 19 23 Aug 13:14:30 13:19:41 76° 254° (WSW) 13:24:55 437.125/150
HO-68 23 Aug 13:16:41 13:20:32 16° 351° (N) 13:24:24 435.675
50 SAT 23 Aug 13:22:03 13:24:41 21° 92° (E) 13:27:19 437.505
UKube-1 23 Aug 13:47:32 13:51:00 23° 91° (E) 13:54:28 .
O/OREOS (USA 219) 23 Aug 13:48:55 13:51:57 17° 353° (N) 13:54:59 437.305
Tancredo 1 23 Aug 13:50:05 13:50:35 10° 205° (SSW) 13:51:05 437.200
AO-85 23 Aug 13:51:39 13:55:02 24° 236° (SW) 13:58:36 145.980
YUBILEINY 23 Aug 13:56:48 14:02:43 21° 68° (ENE) 14:08:38 435.215
RS-15 23 Aug 14:00:45 14:13:13 79° 335° (NNW) 14:25:28 29.354- 29.394
ISS 23 Aug 14:05:05 14:07:22 18° 196° (SSW) 14:09:38 437.550
AO-7 23 Aug 14:07:57 14:16:14 70° 58° (ENE) 14:24:33 .
SPROUT 23 Aug 14:09:14 14:13:26 60° 293° (WNW) 14:17:37 437.525
nSIGHT-1 23 Aug 14:10:07 14:12:18 17° 197° (SSW) 14:14:28 .
BEESAT 3 23 Aug 14:10:48 14:12:17 12° 246° (WSW) 14:13:46 437.485
DX 1 23 Aug 14:14:05 14:18:22 49° 101° (E) 14:22:35 434.975-435.025
VELOX 1 23 Aug 14:20:45 14:25:09 62° 293° (WNW) 14:29:31 145.980
ESTCUBE 1 23 Aug 14:25:50 14:29:25 23° 308° (NW) 14:32:59 437.505/2401.250
BEESAT 2 23 Aug 14:29:24 14:32:14 18° 240° (WSW) 14:35:03 435.950
MOZHAYETS 4 23 Aug 14:37:21 14:39:01 12° 80° (E) 14:40:41
ITAMSAT 1 23 Aug 14:39:32 14:44:42 66° 66° (ENE) 14:49:51 435.822/435.867
Gurwin Techsat 1B 23 Aug 14:49:28 14:53:56 27° 270° (W) 14:58:25 435.225
DOVE 4 23 Aug 14:50:50 14:54:00 17° 45° (NE) 14:57:05 437.250
50 SAT 23 Aug 14:54:18 14:57:37 50° 293° (WNW) 15:00:53 437.505
Oscar 19 23 Aug 14:56:27 14:59:55 18° 276° (W) 15:03:24 437.125/150
HO-68 23 Aug 15:01:28 15:05:48 17° 18° (NNE) 15:10:08 435.675
BEESAT 23 Aug 15:14:51 15:18:44 24° 91° (E) 15:22:35 436.000
UKube-1 23 Aug 15:23:08 15:27:28 68° 292° (WNW) 15:31:45 .
O/OREOS (USA 219) 23 Aug 15:29:37 15:32:59 20° 18° (NNE) 15:36:22 437.305
CUTE-I 23 Aug 15:30:16 15:33:40 17° 40° (NE) 15:37:04 437.470
SPROUT 23 Aug 15:46:10 15:48:37 15° 313° (NW) 15:51:03 437.525
XW-2C 23 Aug 15:46:59 15:48:33 12° 47° (NE) 15:50:06 145.795 - 145.815
YUBILEINY 23 Aug 15:49:14 15:57:50 63° 93° (E) 16:06:24 435.215
DX 1 23 Aug 15:50:30 15:54:27 34° 301° (WNW) 15:58:23 434.975-435.025
ITUPSAT 1 23 Aug 15:50:43 15:55:15 41° 98° (E) 15:59:47 437.325
XW-2F 23 Aug 15:56:28 15:58:23 14° 49° (NE) 16:00:17 145.980 - 146.000
VELOX 1 23 Aug 15:58:07 16:00:52 16° 314° (NW) 16:03:36 145.980
AO-7 23 Aug 16:01:35 16:09:32 46° 261° (W) 16:17:31 .
MOZHAYETS 4 23 Aug 16:12:39 16:17:13 56° 101° (E) 16:21:47
RS-15 23 Aug 16:14:44 16:27:07 69° 6° (N) 16:39:05 29.354- 29.394
KAITUO 1B 23 Aug 16:16:30 16:18:50 16° 52° (NE) 16:21:10 145.475/437.950
ITAMSAT 1 23 Aug 16:20:02 16:24:35 30° 267° (W) 16:29:09 435.822/435.867
DOVE 4 23 Aug 16:25:47 16:30:51 55° 66° (ENE) 16:35:43 437.250
50 SAT 23 Aug 16:29:10 16:29:33 10° 313° (NW) 16:29:55 437.505
CUBESAT XI-V 23 Aug 16:39:38 16:43:50 30° 93° (E) 16:47:59 437.345
NUDT-PHONESAT 23 Aug 16:44:16 16:47:14 23° 58° (ENE) 16:50:15 437.300
HO-68 23 Aug 16:45:30 16:51:40 33° 43° (NE) 16:57:51 435.675
LilacSat-2 23 Aug 16:47:30 16:50:55 32° 61° (ENE) 16:54:22 437.200
XW-2D 23 Aug 16:48:18 16:51:41 31° 61° (ENE) 16:55:06 145.860 - 145.880
BEESAT 23 Aug 16:52:14 16:57:01 75° 292° (WNW) 17:01:47 436.000
XW-2B 23 Aug 16:59:17 17:02:47 37° 64° (ENE) 17:06:20 145.730 - 145.750
UKube-1 23 Aug 17:00:02 17:02:50 17° 313° (NW) 17:05:37 .
CUTE-I 23 Aug 17:07:33 17:12:44 52° 62° (ENE) 17:17:56 437.470
O/OREOS (USA 219) 23 Aug 17:09:06 17:13:28 45° 42° (NE) 17:17:52 437.305
CUTE 1.7 + AOD 2 23 Aug 17:17:38 17:20:48 21° 52° (NE) 17:23:59 437.475
XW-2C 23 Aug 17:18:17 17:21:58 54° 68° (ENE) 17:25:43 145.795 - 145.815
XW-2F 23 Aug 17:28:06 17:31:50 63° 70° (ENE) 17:35:36 145.980 - 146.000
ITUPSAT 1 23 Aug 17:28:38 17:33:10 44° 299° (WNW) 17:37:43 437.325
DX 1 23 Aug 17:28:53 17:29:31 10° 323° (NW) 17:30:08 434.975-435.025
KKS-1 23 Aug 17:41:06 17:45:22 43° 99° (E) 17:49:36 437.445
UWE-3 23 Aug 17:44:49 17:47:13 15° 48° (NE) 17:49:38 435.000/436.395/437.385
YUBILEINY 23 Aug 17:46:35 17:55:03 50° 299° (WNW) 18:03:32 435.215
KAITUO 1B 23 Aug 17:48:32 17:52:17 81° 73° (ENE) 17:56:05 145.475/437.950
MOZHAYETS 4 23 Aug 17:50:06 17:54:13 32° 302° (WNW) 17:58:19
CUBEBUG 2 23 Aug 17:56:41 18:00:03 24° 56° (NE) 18:03:24 437.445
SEEDS 23 Aug 17:59:29 18:03:06 28° 58° (ENE) 18:06:46 437.485
AO-7 23 Aug 18:01:00 18:04:48 13° 287° (WNW) 18:08:36 .
DOVE 4 23 Aug 18:03:59 18:08:45 35° 266° (W) 18:13:22 437.250
STARS 23 Aug 18:11:53 18:16:01 39° 98° (E) 18:20:07 437.465
CUBESAT XI-V 23 Aug 18:16:51 18:21:30 58° 294° (WNW) 18:26:08 437.345
NUDT-PHONESAT 23 Aug 18:17:15 18:20:53 57° 258° (WSW) 18:24:34 437.300
ZACube-1 23 Aug 18:17:53 18:20:36 17° 50° (NE) 18:23:20 437.345
LilacSat-2 23 Aug 18:21:33 18:25:09 40° 262° (W) 18:28:49 437.200
XW-2D 23 Aug 18:22:14 18:25:49 40° 262° (W) 18:29:27 145.860 - 145.880
RS-15 23 Aug 18:28:13 18:40:35 87° 218° (SW) 18:52:22 29.354- 29.394
BEESAT 23 Aug 18:30:43 18:34:10 20° 313° (NW) 18:37:37 436.000
HO-68 23 Aug 18:31:33 18:38:44 85° 66° (ENE) 18:45:57 435.675
XW-2B 23 Aug 18:33:34 18:37:02 34° 264° (W) 18:40:32 145.730 - 145.750
XW-2A 23 Aug 18:35:50 18:38:57 38° 65° (ENE) 18:42:06 145.665 - 145.685
AAUSAT CUBESAT 2 23 Aug 18:36:27 18:40:09 30° 59° (ENE) 18:43:51 437.432
AO-73 23 Aug 18:36:51 18:39:58 21° 53° (NE) 18:43:05 145.935
CUTE-I 23 Aug 18:47:58 18:52:59 40° 263° (W) 18:58:02 437.470
O/OREOS (USA 219) 23 Aug 18:48:37 18:52:57 45° 244° (WSW) 18:57:19 437.305
CUTE 1.7 + AOD 2 23 Aug 18:51:52 18:56:09 89° 261° (W) 19:00:28 437.475
XW-2C 23 Aug 18:53:23 18:56:28 23° 269° (W) 18:59:35 145.795 - 145.815
XW-2F 23 Aug 19:03:29 19:06:20 20° 270° (W) 19:09:14 145.980 - 146.000
ITUPSAT 1 23 Aug 19:07:35 19:10:00 14° 321° (NW) 19:12:24 437.325
Oscar 11 23 Aug 19:17:40 19:21:32 33° 60° (ENE) 19:25:27 .
KKS-1 23 Aug 19:17:48 19:21:56 38° 300° (WNW) 19:26:01 437.445
DELFI C3 23 Aug 19:18:26 19:20:29 14° 47° (NE) 19:22:34 145.870
UWE-3 23 Aug 19:18:54 19:23:00 65° 70° (ENE) 19:27:08 435.000/436.395/437.385
KAITUO 1B 23 Aug 19:24:25 19:26:49 16° 273° (W) 19:29:14 145.475/437.950
MOZHAYETS 4 23 Aug 19:29:34 19:30:10 10° 324° (NW) 19:30:45
CUBEBUG 2 23 Aug 19:32:12 19:36:23 68° 257° (WSW) 19:40:33 437.445
SEEDS 23 Aug 19:34:24 19:38:35 57° 258° (WSW) 19:42:49 437.485
YUBILEINY 23 Aug 19:48:02 19:54:29 22° 328° (NNW) 20:00:56 435.215
STARS 23 Aug 19:48:19 19:52:26 40° 299° (WNW) 19:56:31 437.465
ZACube-1 23 Aug 19:52:10 19:56:18 77° 71° (ENE) 20:00:29 437.345
CUBESAT XI-V 23 Aug 19:55:09 19:58:03 16° 315° (NW) 20:00:57 437.345
STRAND 1 23 Aug 19:56:52 20:01:40 39° 97° (E) 20:06:26 437.568
Max Valier Satellite 23 Aug 20:02:46 20:05:28 20° 56° (NE) 20:08:12 145.860
XW-2A 23 Aug 20:08:56 20:11:48 26° 265° (W) 20:14:43 145.665 - 145.685
AAUSAT CUBESAT 2 23 Aug 20:11:23 20:15:28 51° 260° (W) 20:19:35 437.432
AO-73 23 Aug 20:11:38 20:15:46 82° 255° (WSW) 20:19:58 145.935
HO-68 23 Aug 20:21:04 20:27:18 31° 270° (W) 20:33:34 435.675
CUTE 1.7 + AOD 2 23 Aug 20:29:50 20:32:39 17° 274° (W) 20:35:28 437.475
FO-29 23 Aug 20:33:17 20:35:57 13° 76° (ENE) 20:38:32 435.910
RS-15 23 Aug 20:40:59 20:51:59 43° 246° (WSW) 21:02:30 29.354- 29.394
ESTCUBE 1 23 Aug 20:46:42 20:48:51 13° 41° (NE) 20:51:00 437.505/2401.250
EO-88 23 Aug 20:49:34 20:52:58 37° 64° (ENE) 20:56:24 145.990 - 145.960
DELFI C3 23 Aug 20:50:34 20:54:31 59° 69° (ENE) 20:58:30 145.870
Oscar 11 23 Aug 20:53:23 20:57:35 48° 261° (W) 21:01:50 .
KKS-1 23 Aug 20:55:58 20:57:26 11° 322° (NW) 20:58:53 437.445
UWE-3 23 Aug 20:56:36 20:59:53 22° 270° (W) 21:03:11 435.000/436.395/437.385
PCSat 23 Aug 21:10:47 21:11:31 10° 101° (E) 21:12:16 145.827
CUBEBUG 2 23 Aug 21:12:03 21:13:51 12° 277° (W) 21:15:38 437.445
SEEDS 23 Aug 21:14:03 21:15:14 11° 280° (W) 21:16:26 437.485
TIGRISAT 23 Aug 21:26:08 21:27:57 12° 82° (E) 21:29:47 435.000
STARS 23 Aug 21:26:10 21:27:46 12° 320° (NW) 21:29:21 437.465
ZACube-1 23 Aug 21:30:07 21:33:08 19° 272° (W) 21:36:09 437.345
Max Valier Satellite 23 Aug 21:35:18 21:38:57 71° 255° (WSW) 21:42:39 145.860
STRAND 1 23 Aug 21:36:06 21:41:02 51° 298° (WNW) 21:45:58 437.568
PRISM 23 Aug 21:40:23 21:41:49 11° 83° (E) 21:43:14 437.425
AO-73 23 Aug 21:50:21 21:52:44 15° 275° (W) 21:55:09 145.935
YUBILEINY 23 Aug 21:50:51 21:55:41 15° 2° (N) 22:00:30 435.215
SPROUT 23 Aug 22:02:00 22:04:26 15° 46° (NE) 22:06:51 437.525
LO-87 23 Aug 22:09:54 22:13:18 42° 66° (ENE) 22:16:42 145.935 - 145.965
